Time,TemperatureF,DewpointF,PressureIn,WindDirection,WindDirectionDegrees,WindSpeedMPH,WindSpeedGustMPH,Humidity,HourlyPrecipIn,Conditions,Clouds,dailyrainin,SoftwareType,DateUTC
2013-02-18 00:02:00,30.0,25.0,-100.00,SE,140,10.0,14.0,79,0.00,,,0.00,,2013-02-18 06:02:00,
2013-02-18 00:11:00,30.0,25.0,-100.00,SE,140,11.0,17.0,79,0.00,,,0.00,,2013-02-18 06:11:00,
2013-02-18 00:21:00,31.0,25.0,-100.00,SE,140,11.0,17.0,79,0.00,,,0.00,,2013-02-18 06:21:00,
2013-02-18 00:32:00,31.0,25.0,-100.00,SE,135,11.0,14.0,79,0.00,,,0.00,,2013-02-18 06:32:00,
2013-02-18 00:41:00,30.0,25.0,-100.00,SE,145,9.0,14.0,79,0.00,,,0.00,,2013-02-18 06:41:00,
2013-02-18 00:51:00,30.0,25.0,-100.00,SE,145,10.0,13.0,79,0.00,,,0.00,,2013-02-18 06:51:00,
2013-02-18 01:01:00,30.0,25.0,-100.00,SE,130,9.0,11.0,80,0.00,,,0.00,,2013-02-18 07:01:00,
2013-02-18 01:11:00,30.0,25.0,-100.00,SE,135,9.0,11.0,80,0.00,,,0.00,,2013-02-18 07:11:00,
2013-02-18 01:21:00,29.0,25.0,-100.00,SE,145,9.0,13.0,81,0.00,,,0.00,,2013-02-18 07:21:00,
2013-02-18 01:32:00,29.0,25.0,-100.00,SE,145,7.0,11.0,81,0.00,,,0.00,,2013-02-18 07:32:00,
2013-02-18 01:42:00,30.0,25.0,-100.00,SE,145,9.0,11.0,81,0.00,,,0.00,,2013-02-18 07:42:00,
2013-02-18 01:51:00,30.0,25.0,-100.00,SE,140,11.0,15.0,81,0.00,,,0.00,,2013-02-18 07:51:00,
2013-02-18 02:01:00,31.0,25.0,-100.00,SSE,160,9.0,21.0,80,0.00,,,0.00,,2013-02-18 08:01:00,
2013-02-18 02:11:00,31.0,25.0,-100.00,SSE,155,8.0,13.0,79,0.00,,,0.00,,2013-02-18 08:11:00,
2013-02-18 02:21:00,30.0,25.0,-100.00,SSE,160,9.0,11.0,80,0.00,,,0.00,,2013-02-18 08:21:00,
2013-02-18 02:32:00,31.0,25.0,-100.00,South,175,9.0,11.0,80,0.00,,,0.00,,2013-02-18 08:32:00,
2013-02-18 02:42:00,31.0,25.0,-100.00,SSE,165,7.0,12.0,81,0.00,,,0.00,,2013-02-18 08:42:00,
2013-02-18 02:52:00,30.0,25.0,-100.00,SSE,160,8.0,11.0,81,0.00,,,0.00,,2013-02-18 08:52:00,
2013-02-18 03:02:00,30.0,25.0,-100.00,SSE,155,7.0,12.0,81,0.00,,,0.00,,2013-02-18 09:02:00,
2013-02-18 03:11:00,30.0,25.0,-100.00,SSE,165,7.0,10.0,82,0.00,,,0.00,,2013-02-18 09:11:00,
2013-02-18 03:22:00,29.0,25.0,-100.00,SSE,165,7.0,9.0,83,0.00,,,0.00,,2013-02-18 09:22:00,
2013-02-18 03:32:00,29.0,25.0,-100.00,SSE,160,6.0,7.0,84,0.00,,,0.00,,2013-02-18 09:32:00,
2013-02-18 03:41:00,29.0,25.0,-100.00,SSE,165,4.0,7.0,84,0.00,,,0.00,,2013-02-18 09:41:00,
2013-02-18 03:51:00,29.0,25.0,-100.00,SSE,160,6.0,7.0,85,0.00,,,0.00,,2013-02-18 09:51:00,
2013-02-18 04:01:00,29.0,25.0,-100.00,South,185,6.0,8.0,85,0.00,,,0.00,,2013-02-18 10:01:00,
2013-02-18 04:11:00,29.0,27.0,-100.00,South,185,6.0,9.0,86,0.00,,,0.00,,2013-02-18 10:11:00,
2013-02-18 04:21:00,30.0,27.0,-100.00,SSW,200,6.0,9.0,87,0.00,,,0.00,,2013-02-18 10:21:00,
2013-02-18 04:31:00,29.0,27.0,-100.00,SSW,205,6.0,7.0,87,0.00,,,0.00,,2013-02-18 10:31:00,
2013-02-18 04:42:00,30.0,27.0,-100.00,SW,215,7.0,9.0,88,0.00,,,0.00,,2013-02-18 10:42:00,
2013-02-18 04:52:00,30.0,27.0,-100.00,SW,215,6.0,9.0,89,0.00,,,0.00,,2013-02-18 10:52:00,
2013-02-18 05:01:00,31.0,28.0,-100.00,SW,230,5.0,7.0,90,0.00,,,0.00,,2013-02-18 11:01:00,
2013-02-18 05:11:00,31.0,28.0,-100.00,WSW,240,7.0,10.0,91,0.00,,,0.00,,2013-02-18 11:11:00,
2013-02-18 05:22:00,31.0,28.0,-100.00,WSW,255,7.0,10.0,92,0.00,,,0.00,,2013-02-18 11:22:00,
2013-02-18 05:32:00,31.0,28.0,-100.00,WSW,255,7.0,9.0,94,0.00,,,0.00,,2013-02-18 11:32:00,
2013-02-18 05:42:00,30.0,28.0,-100.00,West,265,9.0,11.0,95,0.00,,,0.00,,2013-02-18 11:42:00,
2013-02-18 05:52:00,30.0,28.0,-100.00,West,270,7.0,12.0,96,0.00,,,0.00,,2013-02-18 11:52:00,
2013-02-18 06:02:00,30.0,28.0,-100.00,WNW,285,9.0,11.0,96,0.00,,,0.00,,2013-02-18 12:02:00,
2013-02-18 06:11:00,30.0,28.0,-100.00,WNW,285,9.0,11.0,96,0.00,,,0.00,,2013-02-18 12:11:00,
2013-02-18 06:22:00,30.0,28.0,-100.00,WNW,285,10.0,12.0,96,0.00,,,0.00,,2013-02-18 12:22:00,
2013-02-18 06:32:00,29.0,28.0,-100.00,WNW,290,7.0,11.0,97,0.00,,,0.00,,2013-02-18 12:32:00,
2013-02-18 06:42:00,30.0,28.0,-100.00,WNW,285,9.0,11.0,97,0.00,,,0.00,,2013-02-18 12:42:00,
2013-02-18 06:52:00,29.0,28.0,-100.00,WNW,295,9.0,12.0,97,0.00,,,0.00,,2013-02-18 12:52:00,
2013-02-18 07:02:00,29.0,28.0,-100.00,WNW,295,9.0,10.0,98,0.00,,,0.00,,2013-02-18 13:02:00,
2013-02-18 07:22:00,29.0,28.0,-100.00,West,275,6.0,7.0,98,0.00,,,0.00,,2013-02-18 13:22:00,
2013-02-18 07:32:00,29.0,28.0,-100.00,West,265,6.0,9.0,98,0.00,,,0.00,,2013-02-18 13:32:00,
2013-02-18 07:42:00,30.0,28.0,-100.00,West,265,4.0,7.0,98,0.00,,,0.00,,2013-02-18 13:42:00,
2013-02-18 07:53:00,30.0,28.0,-100.00,West,260,6.0,7.0,98,0.00,,,0.00,,2013-02-18 13:53:00,
2013-02-18 08:02:00,30.0,30.0,-100.00,WSW,255,7.0,9.0,98,0.00,,,0.00,,2013-02-18 14:02:00,
2013-02-18 08:11:00,31.0,30.0,-100.00,West,270,7.0,10.0,98,0.00,,,0.00,,2013-02-18 14:11:00,
2013-02-18 08:22:00,31.0,30.0,-100.00,West,265,7.0,9.0,98,0.00,,,0.00,,2013-02-18 14:22:00,
2013-02-18 08:33:00,31.0,30.0,-100.00,West,270,11.0,12.0,97,0.00,,,0.00,,2013-02-18 14:33:00,
2013-02-18 08:41:00,31.0,30.0,-100.00,West,270,9.0,11.0,97,0.00,,,0.00,,2013-02-18 14:41:00,
2013-02-18 09:42:00,32.0,32.0,-100.00,West,260,12.0,14.0,99,0.00,,,0.00,,2013-02-18 15:42:00,
2013-02-18 09:52:00,32.0,32.0,-100.00,West,265,12.0,15.0,99,0.00,,,0.00,,2013-02-18 15:52:00,
2013-02-18 10:32:00,29.0,28.0,-100.00,WNW,300,20.0,30.0,97,0.00,,,0.00,,2013-02-18 16:32:00,
2013-02-18 10:42:00,28.0,27.0,-100.00,WNW,300,24.0,32.0,95,0.00,,,0.00,,2013-02-18 16:42:00,
2013-02-18 10:52:00,28.0,27.0,-100.00,WNW,300,22.0,31.0,93,0.00,,,0.00,,2013-02-18 16:52:00,
2013-02-18 11:03:00,27.0,25.0,-100.00,WNW,300,25.0,31.0,93,0.00,,,0.00,,2013-02-18 17:03:00,
2013-02-18 11:12:00,27.0,25.0,-100.00,WNW,300,24.0,31.0,93,0.00,,,0.00,,2013-02-18 17:12:00,
2013-02-18 11:22:00,27.0,25.0,-100.00,WNW,290,21.0,28.0,92,0.00,,,0.00,,2013-02-18 17:22:00,
2013-02-18 11:32:00,25.0,23.0,-100.00,WNW,295,26.0,32.0,92,0.00,,,0.00,,2013-02-18 17:32:00,
2013-02-18 11:42:00,25.0,23.0,-100.00,WNW,300,21.0,31.0,91,0.00,,,0.00,,2013-02-18 17:42:00,
2013-02-18 11:52:00,25.0,23.0,-100.00,WNW,300,22.0,30.0,91,0.00,,,0.00,,2013-02-18 17:52:00,
2013-02-18 12:02:00,24.0,23.0,-100.00,NW,305,26.0,32.0,91,0.00,,,0.00,,2013-02-18 18:02:00,
2013-02-18 12:12:00,23.0,21.0,-100.00,WNW,300,27.0,32.0,90,0.00,,,0.00,,2013-02-18 18:12:00,
2013-02-18 12:22:00,23.0,19.0,-100.00,WNW,295,27.0,31.0,90,0.00,,,0.00,,2013-02-18 18:22:00,
2013-02-18 12:32:00,23.0,19.0,-100.00,WNW,300,22.0,29.0,89,0.00,,,0.00,,2013-02-18 18:32:00,
2013-02-18 12:42:00,22.0,19.0,-100.00,WNW,300,27.0,32.0,89,0.00,,,0.00,,2013-02-18 18:42:00,
2013-02-18 12:52:00,21.0,18.0,-100.00,WNW,295,29.0,34.0,88,0.00,,,0.00,,2013-02-18 18:52:00,
2013-02-18 13:02:00,20.0,18.0,-100.00,WNW,300,29.0,32.0,88,0.00,,,0.00,,2013-02-18 19:02:00,
2013-02-18 13:12:00,20.0,18.0,-100.00,WNW,300,26.0,33.0,88,0.00,,,0.00,,2013-02-18 19:12:00,
2013-02-18 13:22:00,18.0,16.0,-100.00,WNW,300,27.0,35.0,88,0.00,,,0.00,,2013-02-18 19:22:00,
2013-02-18 13:33:00,18.0,16.0,-100.00,WNW,295,29.0,34.0,87,0.00,,,0.00,,2013-02-18 19:33:00,
2013-02-18 13:42:00,18.0,14.0,-100.00,WNW,290,26.0,30.0,87,0.00,,,0.00,,2013-02-18 19:42:00,
2013-02-18 13:52:00,18.0,16.0,-100.00,WNW,295,23.0,31.0,87,0.00,,,0.00,,2013-02-18 19:52:00,
2013-02-18 14:02:00,18.0,14.0,-100.00,WNW,295,28.0,34.0,86,0.00,,,0.00,,2013-02-18 20:02:00,
2013-02-18 14:12:00,18.0,14.0,-100.00,WNW,295,26.0,32.0,86,0.00,,,0.00,,2013-02-18 20:12:00,
2013-02-18 14:22:00,17.0,14.0,-100.00,WNW,290,24.0,31.0,86,0.00,,,0.00,,2013-02-18 20:22:00,
2013-02-18 14:33:00,17.0,14.0,-100.00,WNW,295,23.0,32.0,87,0.00,,,0.00,,2013-02-18 20:33:00,
2013-02-18 14:42:00,17.0,14.0,-100.00,WNW,295,26.0,31.0,86,0.00,,,0.00,,2013-02-18 20:42:00,
2013-02-18 14:52:00,17.0,14.0,-100.00,WNW,300,22.0,33.0,86,0.00,,,0.00,,2013-02-18 20:52:00,
2013-02-18 15:03:00,16.0,12.0,-100.00,WNW,300,24.0,34.0,86,0.00,,,0.00,,2013-02-18 21:03:00,
2013-02-18 15:12:00,16.0,12.0,-100.00,WNW,300,25.0,30.0,86,0.00,,,0.00,,2013-02-18 21:12:00,
2013-02-18 15:22:00,16.0,12.0,-100.00,WNW,295,24.0,29.0,86,0.00,,,0.00,,2013-02-18 21:22:00,
2013-02-18 15:32:00,15.0,12.0,-100.00,WNW,300,24.0,31.0,86,0.00,,,0.00,,2013-02-18 21:32:00,
2013-02-18 15:42:00,15.0,12.0,-100.00,WNW,290,23.0,31.0,86,0.00,,,0.00,,2013-02-18 21:42:00,
2013-02-18 15:52:00,15.0,12.0,-100.00,WNW,300,24.0,31.0,85,0.00,,,0.00,,2013-02-18 21:52:00,
2013-02-18 16:02:00,15.0,10.0,-100.00,WNW,300,23.0,30.0,85,0.00,,,0.00,,2013-02-18 22:02:00,
2013-02-18 16:12:00,15.0,10.0,-100.00,WNW,295,25.0,31.0,85,0.00,,,0.00,,2013-02-18 22:12:00,
2013-02-18 16:22:00,14.0,10.0,-100.00,NW,305,27.0,31.0,84,0.00,,,0.00,,2013-02-18 22:22:00,
2013-02-18 16:33:00,14.0,10.0,-100.00,WNW,300,24.0,31.0,84,0.00,,,0.00,,2013-02-18 22:33:00,
2013-02-18 16:42:00,13.0,9.0,-100.00,NW,305,26.0,30.0,84,0.00,,,0.00,,2013-02-18 22:42:00,
2013-02-18 16:52:00,13.0,9.0,-100.00,WNW,300,21.0,29.0,83,0.00,,,0.00,,2013-02-18 22:52:00,
2013-02-18 17:02:00,13.0,9.0,-100.00,WNW,295,26.0,29.0,84,0.00,,,0.00,,2013-02-18 23:02:00,
2013-02-18 17:12:00,13.0,9.0,-100.00,WNW,300,21.0,29.0,84,0.00,,,0.00,,2013-02-18 23:12:00,
2013-02-18 17:22:00,13.0,9.0,-100.00,WNW,300,17.0,26.0,84,0.00,,,0.00,,2013-02-18 23:22:00,
2013-02-18 17:33:00,12.0,9.0,-100.00,WNW,300,20.0,27.0,84,0.00,,,0.00,,2013-02-18 23:33:00,
2013-02-18 17:42:00,12.0,9.0,-100.00,WNW,300,21.0,28.0,84,0.00,,,0.00,,2013-02-18 23:42:00,
2013-02-18 17:52:00,12.0,9.0,-100.00,WNW,300,24.0,29.0,84,0.00,,,0.00,,2013-02-18 23:52:00,
2013-02-18 18:02:00,11.0,7.0,-100.00,WNW,300,21.0,28.0,84,0.00,,,0.00,,2013-02-19 00:02:00,
2013-02-18 18:12:00,11.0,7.0,-100.00,NW,315,23.0,30.0,84,0.00,,,0.00,,2013-02-19 00:12:00,
2013-02-18 18:22:00,11.0,7.0,-100.00,WNW,300,18.0,30.0,84,0.00,,,0.00,,2013-02-19 00:22:00,
2013-02-18 18:34:00,11.0,7.0,-100.00,NW,305,20.0,27.0,84,0.00,,,0.00,,2013-02-19 00:34:00,
2013-02-18 18:42:00,10.0,7.0,-100.00,NW,305,25.0,30.0,85,0.00,,,0.00,,2013-02-19 00:42:00,
2013-02-18 18:53:00,9.0,5.0,-100.00,NW,310,26.0,31.0,85,0.00,,,0.00,,2013-02-19 00:53:00,
2013-02-18 19:03:00,9.0,5.0,-100.00,NW,315,26.0,35.0,84,0.00,,,0.00,,2013-02-19 01:03:00,
2013-02-18 19:14:00,9.0,5.0,-100.00,NW,310,26.0,35.0,84,0.00,,,0.00,,2013-02-19 01:14:00,
2013-02-18 19:23:00,9.0,5.0,-100.00,NW,320,23.0,31.0,84,0.00,,,0.00,,2013-02-19 01:23:00,
2013-02-18 19:34:00,8.0,5.0,-100.00,NW,320,23.0,29.0,84,0.00,,,0.00,,2013-02-19 01:34:00,
2013-02-18 19:43:00,8.0,3.0,-100.00,NW,310,27.0,34.0,84,0.00,,,0.00,,2013-02-19 01:43:00,
2013-02-18 19:53:00,8.0,3.0,-100.00,NW,315,21.0,32.0,84,0.00,,,0.00,,2013-02-19 01:53:00,
2013-02-18 20:03:00,7.0,3.0,-100.00,NW,310,27.0,35.0,85,0.00,,,0.00,,2013-02-19 02:03:00,
2013-02-18 20:13:00,7.0,3.0,-100.00,NW,315,27.0,34.0,86,0.00,,,0.00,,2013-02-19 02:13:00,
2013-02-18 20:22:00,7.0,3.0,-100.00,NW,310,24.0,34.0,87,0.00,,,0.00,,2013-02-19 02:22:00,
2013-02-18 20:34:00,6.0,3.0,-100.00,NW,310,22.0,32.0,87,0.00,,,0.00,,2013-02-19 02:34:00,
2013-02-18 20:42:00,6.0,3.0,-100.00,NW,315,24.0,29.0,87,0.00,,,0.00,,2013-02-19 02:42:00,
2013-02-18 20:53:00,6.0,3.0,-100.00,NW,310,26.0,29.0,87,0.00,,,0.00,,2013-02-19 02:53:00,
2013-02-18 21:06:00,6.0,3.0,-100.00,NW,310,24.0,30.0,89,0.00,,,0.00,,2013-02-19 03:06:00,
2013-02-18 21:14:00,6.0,3.0,-100.00,NW,310,22.0,30.0,90,0.00,,,0.00,,2013-02-19 03:14:00,
2013-02-18 21:23:00,5.0,3.0,-100.00,NW,310,23.0,30.0,91,0.00,,,0.00,,2013-02-19 03:23:00,
2013-02-18 21:33:00,5.0,3.0,-100.00,NW,310,22.0,29.0,91,0.00,,,0.00,,2013-02-19 03:33:00,
2013-02-18 21:43:00,5.0,3.0,-100.00,NW,305,23.0,28.0,91,0.00,,,0.00,,2013-02-19 03:43:00,
2013-02-18 21:53:00,5.0,3.0,-100.00,NW,310,22.0,29.0,91,0.00,,,0.00,,2013-02-19 03:53:00,
2013-02-18 22:02:00,5.0,3.0,-100.00,NW,310,22.0,29.0,91,0.00,,,0.00,,2013-02-19 04:02:00,
2013-02-18 22:13:00,5.0,3.0,-100.00,NW,310,22.0,29.0,91,0.00,,,0.00,,2013-02-19 04:13:00,
2013-02-18 22:23:00,5.0,3.0,-100.00,NW,310,22.0,29.0,91,0.00,,,0.00,,2013-02-19 04:23:00,
2013-02-18 22:33:00,5.0,3.0,-100.00,NW,310,22.0,29.0,91,0.00,,,0.00,,2013-02-19 04:33:00,
2013-02-18 23:02:00,4.0,3.0,-100.00,NW,310,23.0,29.0,92,0.00,,,0.00,,2013-02-19 05:02:00,
2013-02-18 23:12:00,4.0,3.0,-100.00,NW,315,22.0,29.0,92,0.00,,,0.00,,2013-02-19 05:12:00,
2013-02-18 23:22:00,4.0,3.0,-100.00,NW,310,21.0,29.0,92,0.00,,,0.00,,2013-02-19 05:22:00,
2013-02-18 23:32:00,4.0,3.0,-100.00,NW,315,22.0,28.0,92,0.00,,,0.00,,2013-02-19 05:32:00,
2013-02-18 23:43:00,4.0,3.0,-100.00,NW,315,22.0,29.0,93,0.00,,,0.00,,2013-02-19 05:43:00,
2013-02-18 23:52:00,4.0,3.0,-100.00,NW,310,21.0,29.0,93,0.00,,,0.00,,2013-02-19 05:52:00,